Location: Sternwarte ZA, Rosenfeld-Brittheim
(48.2889°N, 8.6789°E)
Time: 19:40:34
(UTC+01:00)

ISS - Pass Details

Date: 14 December 2017
Orbit: 402 x 407 km, 51.6° (Epoch: 11 December)

Event Time Altitude Azimuth Distance (km) Brightness Sun altitude
Rises 18:45:46 0° 287° (WNW) 2,330 1.1 -21.3°
Reaches altitude 10° 18:48:12 10° 270° (W) 1,466 0.1 -21.7°
Maximum altitude 18:50:41 20° 220° (SW) 997 -1.3 -22.1°
Enters shadow 18:52:21 14° 182° (S) 1,220 -1.3 -22.3°
